Location: Barruelo
(41.2448°N, 3.8231°W)
Time: 04:39:38
(UTC+00:00)

Cosmos 2227 Rocket - Pass Details

Date: 19 March 2026
Orbit: 836 x 845 km, 71.0° (Epoch: 15 April)

Event Time Altitude Azimuth Distance (km) Brightness Sun altitude
Rises 22:30:05 0° 331° (NNW) 3,413 6.2 -41.7°
Reaches altitude 10° 22:32:36 10° 326° (NW) 2,473 5.3 -42.0°
Enters shadow 22:34:12 19° 320° (NW) 1,905 4.5 -42.2°
